Location: Davidschlag
(48.4333°N, 14.2833°E)
Time: 20:21:13
(UTC+00:00)

CRYOSAT 2 - Pass Details

Date: 27 February 2020
Orbit: 712 x 725 km, 92.0° (Epoch: 03 April)

Event Time Altitude Azimuth Distance (km) Brightness Sun altitude
Rises 17:43:45 0° 174° (S) 3,129 7.6 -10.9°
Reaches altitude 10° 17:46:02 10° 175° (S) 2,213 6.8 -11.3°
Maximum altitude 17:50:56 87° 264° (W) 734 4.4 -12.1°
Drops below altitude 10° 17:55:54 10° 355° (N) 2,230 7.0 -12.9°
Sets 17:58:12 0° 356° (N) 3,155 7.8 -13.3°
